TimeEST,TemperatureF,Dew PointF,Humidity,Sea Level PressureIn,VisibilityMPH,Wind Direction,Wind SpeedMPH,Gust SpeedMPH,PrecipitationIn,Events,Conditions,WindDirDegrees,DateUTC
12:09 AM,28.4,14.0,55,29.67,10.0,West,12.7,25.3,N/A,,Clear,280,2014-01-26 05:09:00
12:30 AM,28.4,15.8,59,29.68,10.0,WNW,19.6,25.3,N/A,,Clear,300,2014-01-26 05:30:00
12:51 AM,26.6,15.8,64,29.71,10.0,WNW,13.8,25.3,N/A,,Clear,300,2014-01-26 05:51:00
1:09 AM,26.6,14.0,59,29.73,10.0,NW,9.2,-,N/A,,Mostly Cloudy,310,2014-01-26 06:09:00
1:30 AM,26.6,12.2,55,29.74,10.0,NW,12.7,23.0,N/A,,Mostly Cloudy,310,2014-01-26 06:30:00
1:51 AM,24.8,10.4,54,29.75,10.0,WNW,11.5,20.7,N/A,,Scattered Clouds,300,2014-01-26 06:51:00
2:09 AM,24.8,8.6,50,29.78,10.0,WNW,9.2,17.3,N/A,,Clear,290,2014-01-26 07:09:00
2:30 AM,23.0,8.6,54,29.78,10.0,West,9.2,16.1,N/A,,Scattered Clouds,280,2014-01-26 07:30:00
2:51 AM,23.0,10.4,59,29.79,10.0,NW,12.7,18.4,N/A,,Scattered Clouds,310,2014-01-26 07:51:00
3:09 AM,23.0,10.4,59,29.80,10.0,West,4.6,-,N/A,,Scattered Clouds,270,2014-01-26 08:09:00
3:30 AM,23.0,10.4,59,29.81,10.0,NW,5.8,-,N/A,,Scattered Clouds,310,2014-01-26 08:30:00
3:51 AM,23.0,8.6,54,29.82,10.0,West,6.9,-,N/A,,Scattered Clouds,280,2014-01-26 08:51:00
4:09 AM,21.2,8.6,58,29.82,10.0,WNW,6.9,-,N/A,,Scattered Clouds,290,2014-01-26 09:09:00
4:30 AM,21.2,5.0,50,29.84,10.0,NW,4.6,-,N/A,,Clear,320,2014-01-26 09:30:00
4:51 AM,19.4,5.0,54,29.85,10.0,NW,5.8,-,N/A,,Clear,310,2014-01-26 09:51:00
5:09 AM,19.4,3.2,49,29.86,10.0,WNW,5.8,-,N/A,,Clear,300,2014-01-26 10:09:00
5:30 AM,19.4,5.0,54,29.91,10.0,West,5.8,-,N/A,,Scattered Clouds,270,2014-01-26 10:30:00
5:51 AM,19.4,5.0,54,29.92,10.0,NW,3.5,-,N/A,,Mostly Cloudy,320,2014-01-26 10:51:00
6:09 AM,17.6,5.0,58,29.92,10.0,West,4.6,-,N/A,,Mostly Cloudy,270,2014-01-26 11:09:00
6:30 AM,17.6,5.0,58,29.92,10.0,Calm,Calm,-,N/A,,Scattered Clouds,0,2014-01-26 11:30:00
6:51 AM,15.8,5.0,62,29.93,10.0,WNW,9.2,-,N/A,,Clear,290,2014-01-26 11:51:00
7:09 AM,17.6,6.8,63,29.95,10.0,South,4.6,-,N/A,,Clear,190,2014-01-26 12:09:00
7:30 AM,15.8,5.0,62,29.95,10.0,Calm,Calm,-,N/A,,Clear,0,2014-01-26 12:30:00
7:51 AM,15.8,5.0,62,29.95,10.0,SW,3.5,-,N/A,,Clear,230,2014-01-26 12:51:00
8:09 AM,15.8,5.0,62,29.95,10.0,WNW,3.5,-,N/A,,Clear,300,2014-01-26 13:09:00
8:30 AM,19.4,3.2,49,29.95,10.0,Calm,Calm,-,N/A,,Clear,0,2014-01-26 13:30:00
8:51 AM,21.2,3.2,46,29.95,10.0,Calm,Calm,-,N/A,,Clear,0,2014-01-26 13:51:00
9:12 AM,23.0,1.4,39,29.95,10.0,WNW,3.5,-,N/A,,Clear,290,2014-01-26 14:12:00
9:30 AM,23.0,3.2,43,29.95,10.0,West,6.9,-,N/A,,Clear,260,2014-01-26 14:30:00
9:51 AM,24.8,1.4,36,29.95,10.0,NNW,3.5,-,N/A,,Clear,330,2014-01-26 14:51:00
10:12 AM,24.8,1.4,36,29.95,10.0,WNW,3.5,-,N/A,,Clear,290,2014-01-26 15:12:00
10:30 AM,24.8,1.4,36,29.94,10.0,Calm,Calm,-,N/A,,Clear,0,2014-01-26 15:30:00
10:51 AM,26.6,3.2,37,29.93,10.0,Calm,Calm,-,N/A,,Clear,0,2014-01-26 15:51:00
11:12 AM,28.4,3.2,34,29.93,10.0,SSW,4.6,-,N/A,,Clear,200,2014-01-26 16:12:00
11:30 AM,30.2,3.2,32,29.92,10.0,South,6.9,-,N/A,,Clear,170,2014-01-26 16:30:00
11:51 AM,30.2,3.2,32,29.91,10.0,SSW,8.1,-,N/A,,Clear,210,2014-01-26 16:51:00
12:12 PM,30.2,3.2,32,29.90,10.0,SSE,9.2,-,N/A,,Scattered Clouds,160,2014-01-26 17:12:00
12:30 PM,30.2,3.2,32,29.89,10.0,SSW,8.1,-,N/A,,Mostly Cloudy,210,2014-01-26 17:30:00
12:51 PM,30.2,3.2,32,29.88,10.0,South,6.9,-,N/A,,Overcast,170,2014-01-26 17:51:00
1:12 PM,30.2,5.0,34,29.88,10.0,South,8.1,-,N/A,,Overcast,190,2014-01-26 18:12:00
1:30 PM,28.4,5.0,37,29.88,10.0,South,4.6,-,N/A,,Overcast,190,2014-01-26 18:30:00
1:51 PM,30.2,5.0,34,29.89,10.0,Calm,Calm,-,N/A,,Overcast,0,2014-01-26 18:51:00
2:12 PM,30.2,6.8,37,29.89,10.0,SE,4.6,-,N/A,,Overcast,140,2014-01-26 19:12:00
2:30 PM,28.4,8.6,43,29.88,10.0,SE,6.9,-,N/A,,Overcast,130,2014-01-26 19:30:00
2:51 PM,28.4,8.6,43,29.86,10.0,ESE,9.2,-,N/A,,Overcast,110,2014-01-26 19:51:00
3:12 PM,30.2,10.4,44,29.85,10.0,SE,8.1,-,N/A,,Mostly Cloudy,140,2014-01-26 20:12:00
3:30 PM,30.2,12.2,47,29.85,10.0,SE,5.8,-,N/A,,Overcast,130,2014-01-26 20:30:00
3:51 PM,30.2,10.4,44,29.84,10.0,SE,6.9,-,N/A,,Overcast,140,2014-01-26 20:51:00
4:12 PM,30.2,10.4,44,29.83,10.0,SSE,4.6,-,N/A,,Overcast,160,2014-01-26 21:12:00
4:30 PM,30.2,10.4,44,29.83,10.0,SSE,5.8,-,N/A,,Overcast,150,2014-01-26 21:30:00
4:51 PM,30.2,10.4,44,29.84,10.0,SSE,3.5,-,N/A,,Overcast,150,2014-01-26 21:51:00
5:12 PM,30.2,10.4,44,29.84,10.0,Calm,Calm,-,N/A,,Overcast,0,2014-01-26 22:12:00
5:33 PM,30.2,10.4,44,29.84,10.0,SE,3.5,-,N/A,,Overcast,130,2014-01-26 22:33:00
5:51 PM,30.2,12.2,47,29.84,10.0,SE,3.5,-,N/A,,Overcast,130,2014-01-26 22:51:00
6:12 PM,30.2,12.2,47,29.84,10.0,SE,3.5,-,N/A,,Overcast,140,2014-01-26 23:12:00
6:33 PM,30.2,15.8,55,29.83,10.0,SE,5.8,-,N/A,,Overcast,140,2014-01-26 23:33:00
6:51 PM,30.2,17.6,60,29.83,10.0,SE,4.6,-,N/A,,Overcast,140,2014-01-26 23:51:00
7:12 PM,30.2,17.6,60,29.83,10.0,Calm,Calm,-,N/A,,Mostly Cloudy,0,2014-01-27 00:12:00
7:33 PM,28.4,17.6,64,29.82,10.0,Calm,Calm,-,N/A,,Overcast,0,2014-01-27 00:33:00
7:51 PM,28.4,17.6,64,29.82,10.0,Calm,Calm,-,N/A,,Overcast,0,2014-01-27 00:51:00
8:12 PM,28.4,17.6,64,29.82,10.0,Calm,Calm,-,N/A,,Overcast,0,2014-01-27 01:12:00
8:33 PM,26.6,17.6,69,29.82,10.0,Calm,Calm,-,N/A,,Overcast,0,2014-01-27 01:33:00
8:51 PM,26.6,17.6,69,29.82,10.0,Calm,Calm,-,N/A,,Mostly Cloudy,0,2014-01-27 01:51:00
9:12 PM,23.0,15.8,74,29.81,10.0,Calm,Calm,-,N/A,,Scattered Clouds,0,2014-01-27 02:12:00
9:33 PM,23.0,15.8,74,29.81,10.0,Calm,Calm,-,N/A,,Clear,0,2014-01-27 02:33:00
9:51 PM,23.0,15.8,74,29.81,10.0,Calm,Calm,-,N/A,,Clear,0,2014-01-27 02:51:00
10:12 PM,21.2,15.8,80,29.80,10.0,Calm,Calm,-,N/A,,Clear,0,2014-01-27 03:12:00
10:33 PM,21.2,14.0,74,29.80,10.0,Calm,Calm,-,N/A,,Clear,0,2014-01-27 03:33:00
10:51 PM,19.4,14.0,80,29.80,10.0,Calm,Calm,-,N/A,,Clear,0,2014-01-27 03:51:00
11:12 PM,21.2,15.8,80,29.79,10.0,Calm,Calm,-,N/A,,Clear,0,2014-01-27 04:12:00
11:33 PM,19.4,15.8,86,29.77,10.0,Calm,Calm,-,N/A,,Clear,0,2014-01-27 04:33:00
11:51 PM,19.4,15.8,86,29.76,10.0,South,3.5,-,N/A,,Clear,180,2014-01-27 04:51:00